Location: Unspecified
(54.1780°N, 0.0000°E)
Time: 08:46:40
(UTC+00:00)

A-11 Canister half - All Passes

Search period start: 19 June 2019 00:00
Search period end: 29 June 2019 00:00
Orbit: 1516 x 1684 km, 47.2° (Epoch: 19 June)

Date Brightness Start Highest point End Pass type
(mag) Time Alt. Az. Time Alt. Az. Time Alt. Az.
19 Jun - 10:37:50 10° SSW 10:45:37 27° SE 10:53:14 10° E daylight
19 Jun - 12:39:43 10° SW 12:49:02 51° SSE 12:58:03 10° E daylight
19 Jun - 14:43:43 10° W 14:53:05 57° S 15:02:10 10° ESE daylight
19 Jun - 16:48:18 10° W 16:56:50 39° SSW 17:05:09 10° SSE daylight
19 Jun - 18:54:44 10° W 18:59:29 15° SW 19:04:12 10° SSW daylight
20 Jun - 10:15:10 10° S 10:22:49 26° SE 10:30:16 10° E daylight
20 Jun - 12:16:51 10° SW 12:26:10 50° SSE 12:35:10 10° E daylight
20 Jun - 14:20:48 10° W 14:30:13 58° S 14:39:19 10° ESE daylight
20 Jun - 16:25:22 10° W 16:34:00 40° SSW 16:42:25 10° SE daylight
20 Jun - 18:31:32 10° W 18:36:43 16° SW 18:41:51 10° SSW daylight
21 Jun - 09:52:31 10° S 10:00:00 25° SE 10:07:18 10° E daylight
21 Jun - 11:54:00 10° SW 12:03:18 49° SSE 12:12:18 10° E daylight
21 Jun - 13:57:52 10° WSW 14:07:20 58° S 14:16:28 10° ESE daylight
21 Jun - 16:02:26 10° W 16:11:10 41° SSW 16:19:40 10° SE daylight
21 Jun - 18:08:23 10° W 18:13:58 17° SW 18:19:28 10° SSW daylight
22 Jun - 09:29:53 10° S 09:37:11 24° SE 09:44:20 10° E daylight
22 Jun - 11:31:09 10° SW 11:40:26 47° SSE 11:49:25 10° E daylight
22 Jun - 13:34:57 10° WSW 13:44:27 58° S 13:53:37 10° ESE daylight
22 Jun - 15:39:30 10° W 15:48:20 43° SSW 15:56:54 10° SE daylight
22 Jun - 17:45:16 10° W 17:51:12 19° SW 17:57:03 10° S daylight
23 Jun - 09:07:17 10° S 09:14:22 23° SE 09:21:20 10° E daylight
23 Jun - 11:08:18 10° SW 11:17:34 46° SSE 11:26:31 10° E daylight
23 Jun - 13:12:02 10° WSW 13:21:34 58° S 13:30:46 10° ESE daylight
23 Jun - 15:16:34 10° W 15:25:30 44° SSW 15:34:08 10° SE daylight
23 Jun - 17:22:11 10° W 17:28:25 20° SW 17:34:34 10° S daylight
24 Jun - 08:44:41 10° S 08:51:34 21° SE 08:58:19 10° E daylight
24 Jun - 10:45:28 10° SW 10:54:42 45° SSE 11:03:39 10° E daylight
24 Jun - 12:49:07 10° WSW 12:58:41 58° S 13:07:55 10° ESE daylight
24 Jun - 14:53:37 10° W 15:02:39 45° SSW 15:11:22 10° SE daylight
24 Jun - 16:59:07 10° W 17:05:39 21° SW 17:12:04 10° S daylight
25 Jun - 08:22:08 10° S 08:28:46 20° SE 08:35:16 10° E daylight
25 Jun - 10:22:38 10° SW 10:31:50 44° SSE 10:40:45 10° E daylight
25 Jun - 12:26:13 10° WSW 12:35:48 58° S 12:45:04 10° ESE daylight
25 Jun - 14:30:42 10° W 14:39:48 47° SSW 14:48:35 10° SE daylight
25 Jun - 16:36:03 10° W 16:42:52 23° SW 16:49:32 10° S daylight
26 Jun - 07:59:36 10° S 08:05:58 19° SE 08:12:13 10° E daylight
26 Jun - 09:59:49 10° SW 10:08:58 43° SSE 10:17:52 10° E daylight
26 Jun - 12:03:18 10° WSW 12:12:55 58° S 12:22:12 10° ESE daylight
26 Jun - 14:07:45 10° W 14:16:56 48° SSW 14:25:48 10° SE daylight
26 Jun - 16:13:02 10° W 16:20:05 24° SW 16:26:59 10° S daylight
27 Jun - 07:37:07 10° SSE 07:43:10 18° SE 07:49:07 10° E daylight
27 Jun - 09:37:00 10° SW 09:46:06 42° SSE 09:54:58 10° E daylight
27 Jun - 11:40:23 10° WSW 11:50:01 58° S 11:59:20 10° E daylight
27 Jun - 13:44:49 10° W 13:54:04 49° SSW 14:03:00 10° SE daylight
27 Jun - 15:50:00 10° W 15:57:17 25° SW 16:04:25 10° S daylight
28 Jun - 07:14:40 10° SSE 07:20:22 17° SE 07:26:00 10° E daylight
28 Jun - 09:14:11 10° SW 09:23:15 40° SSE 09:32:04 10° E daylight
28 Jun - 11:17:28 10° WSW 11:27:08 58° S 11:36:27 10° E daylight
28 Jun - 13:21:53 10° W 13:31:12 50° SSW 13:40:12 10° SE daylight
28 Jun - 15:26:59 10° W 15:34:29 26° SW 15:41:49 10° S daylight
